TLP1401 LEMG-EHAM

Flight info

Callsign TLP1401
Flight time N/A
Altitude 34000
Route BLN DCT MORAL DCT BEXID DCT VTB DCT RBO DCT OSTIX DCT GASMO DCT DGO DCT CEGAM DCT BAGAS DCT SSN DCT LUSEM DCT LULUT DCT ADABI DCT BOKNO UN858 VANAD UN874 ARSAF DCT EGOZE DCT CMB DCT VEKIN DCT ADUTO N873 FERDI/N0367F240 Y18 DENUT
Aircraft B738/M-SDE2E3FGHIRWXY/LB1

Departure

Time N/A
Airport Málaga-Costa del Sol Airport (LEMG)

Arrival

Time 2026-05-05 11:35
Airport Amsterdam Airport Schiphol (EHAM)
Time Latitude Longitude Altitude Speed Heading
2026-05-05 10:54 49.04591 1.60454 33871 ft 446 kts 52°
2026-05-05 10:55 49.08674 1.67619 33876 ft 448 kts 52°
2026-05-05 10:55 49.12798 1.74771 33871 ft 449 kts 51°
2026-05-05 10:56 49.16941 1.81909 33882 ft 449 kts 51°
2026-05-05 10:56 49.21090 1.89065 33875 ft 449 kts 51°
2026-05-05 10:57 49.25228 1.96225 33879 ft 448 kts 51°
2026-05-05 10:57 49.29347 2.03376 33877 ft 447 kts 51°
2026-05-05 10:58 49.33457 2.10528 33879 ft 446 kts 51°
2026-05-05 10:58 49.37526 2.17630 33880 ft 445 kts 51°
2026-05-05 10:59 49.41606 2.24775 33886 ft 445 kts 52°
2026-05-05 10:59 49.45680 2.31928 33880 ft 445 kts 52°
2026-05-05 11:00 49.49753 2.39099 33878 ft 445 kts 52°
2026-05-05 11:00 49.53823 2.46271 33879 ft 446 kts 50°
2026-05-05 11:01 49.58626 2.52371 33895 ft 451 kts 34°
2026-05-05 11:01 49.63976 2.57468 33882 ft 453 kts 33°
2026-05-05 11:02 49.69354 2.62561 33883 ft 454 kts 33°
2026-05-05 11:02 49.74708 2.67728 33899 ft 454 kts 33°
2026-05-05 11:03 49.80053 2.72943 33918 ft 455 kts 34°
2026-05-05 11:03 49.85405 2.78189 33903 ft 455 kts 34°
2026-05-05 11:04 49.90720 2.83408 33907 ft 455 kts 34°
2026-05-05 11:04 49.96063 2.88668 33910 ft 455 kts 34°
2026-05-05 11:05 50.01405 2.93939 33912 ft 455 kts 34°
2026-05-05 11:05 50.06738 2.99216 33907 ft 454 kts 34°
2026-05-05 11:06 50.12057 3.04494 33883 ft 448 kts 34°
2026-05-05 11:06 50.14650 3.07070 33880 ft 435 kts 34°
2026-05-05 11:06 50.17194 3.09603 33907 ft 432 kts 34°
2026-05-05 11:07 50.22252 3.14640 33651 ft 433 kts 33°
2026-05-05 11:07 50.24868 3.16829 33338 ft 428 kts 26°
2026-05-05 11:07 50.27576 3.18712 32973 ft 425 kts 24°
2026-05-05 11:07 50.30282 3.20516 32638 ft 420 kts 24°
2026-05-05 11:08 50.32959 3.22314 32253 ft 417 kts 24°
2026-05-05 11:08 50.35609 3.24135 31894 ft 414 kts 25°
2026-05-05 11:08 50.38225 3.25962 31534 ft 411 kts 25°
2026-05-05 11:08 50.40824 3.27794 31185 ft 408 kts 26°
2026-05-05 11:09 50.43345 3.29717 31034 ft 399 kts 28°
2026-05-05 11:09 50.44984 3.31024 30787 ft 398 kts 28°
2026-05-05 11:10 50.52395 3.36870 29778 ft 390 kts 26°
2026-05-05 11:10 50.54852 3.38608 29505 ft 384 kts 24°
2026-05-05 11:10 50.57300 3.40268 29132 ft 381 kts 24°
2026-05-05 11:10 50.59731 3.41903 28783 ft 380 kts 24°
2026-05-05 11:11 50.62206 3.43576 28443 ft 396 kts 24°
2026-05-05 11:11 50.64803 3.45346 28071 ft 417 kts 24°
2026-05-05 11:11 50.67530 3.47216 27662 ft 437 kts 24°
2026-05-05 11:11 50.70339 3.49151 27226 ft 442 kts 24°
2026-05-05 11:12 50.73154 3.51094 26788 ft 440 kts 24°
2026-05-05 11:12 50.75942 3.53023 26366 ft 437 kts 24°
2026-05-05 11:12 50.78716 3.54945 25953 ft 433 kts 24°
2026-05-05 11:12 50.81465 3.56853 25552 ft 430 kts 24°
2026-05-05 11:13 50.84196 3.58750 25155 ft 427 kts 25°
2026-05-05 11:13 50.86871 3.60611 24763 ft 424 kts 25°
2026-05-05 11:13 50.89572 3.62421 24363 ft 421 kts 20°
2026-05-05 11:13 50.92389 3.63651 24007 ft 419 kts 11°
2026-05-05 11:14 50.95264 3.64137 23750 ft 413 kts
2026-05-05 11:14 50.98135 3.64312 23360 ft 411 kts
2026-05-05 11:14 51.00988 3.64436 22928 ft 410 kts
2026-05-05 11:14 51.03843 3.64565 22521 ft 410 kts
2026-05-05 11:15 51.06687 3.64715 22100 ft 409 kts
2026-05-05 11:15 51.09527 3.64883 21722 ft 408 kts
2026-05-05 11:15 51.12372 3.65064 21332 ft 409 kts
2026-05-05 11:15 51.15204 3.65249 20934 ft 404 kts
2026-05-05 11:16 51.17999 3.65432 20547 ft 400 kts
2026-05-05 11:16 51.20776 3.65615 20161 ft 396 kts
2026-05-05 11:16 51.23510 3.65792 19779 ft 392 kts
2026-05-05 11:16 51.26219 3.65841 19450 ft 387 kts
2026-05-05 11:17 51.28902 3.65761 19087 ft 384 kts 359°
2026-05-05 11:17 51.31561 3.65642 18732 ft 382 kts 359°
2026-05-05 11:17 51.34213 3.65522 18366 ft 380 kts 359°
2026-05-05 11:17 51.36859 3.65413 17970 ft 381 kts 359°
2026-05-05 11:18 51.39514 3.65314 17562 ft 381 kts 359°
2026-05-05 11:18 51.42159 3.65223 17164 ft 379 kts 359°
2026-05-05 11:18 51.44787 3.65137 16789 ft 376 kts 359°
2026-05-05 11:18 51.47395 3.65055 16421 ft 372 kts 359°
2026-05-05 11:19 51.49975 3.64974 16061 ft 369 kts 359°
2026-05-05 11:19 51.52505 3.64895 15708 ft 366 kts 359°
2026-05-05 11:19 51.55048 3.64815 15337 ft 365 kts 359°
2026-05-05 11:19 51.57582 3.64736 14979 ft 364 kts 360°
2026-05-05 11:20 51.60099 3.64656 14618 ft 360 kts 359°
2026-05-05 11:20 51.62586 3.64577 14268 ft 355 kts 359°
2026-05-05 11:20 51.65041 3.64500 13926 ft 351 kts 359°
2026-05-05 11:20 51.67469 3.64423 13560 ft 347 kts 359°
2026-05-05 11:21 51.69141 3.64415 13290 ft 344 kts
2026-05-05 11:21 51.71425 3.65405 12933 ft 340 kts 28°
2026-05-05 11:21 51.73308 3.67628 12675 ft 334 kts 47°
2026-05-05 11:21 51.74678 3.70607 12380 ft 328 kts 57°
2026-05-05 11:22 51.75897 3.73701 12027 ft 325 kts 58°
2026-05-05 11:22 51.77079 3.76782 11693 ft 321 kts 58°
2026-05-05 11:22 51.78252 3.79840 11362 ft 318 kts 58°
2026-05-05 11:22 51.79420 3.82863 11042 ft 315 kts 57°
2026-05-05 11:23 51.80581 3.85849 10720 ft 312 kts 57°
2026-05-05 11:23 51.81735 3.88806 10402 ft 310 kts 57°
2026-05-05 11:23 51.82881 3.91738 10083 ft 308 kts 57°
2026-05-05 11:23 51.84010 3.94626 9939 ft 299 kts 57°
2026-05-05 11:24 51.85121 3.97467 9598 ft 298 kts 57°
2026-05-05 11:24 51.86226 4.00295 9272 ft 296 kts 57°
2026-05-05 11:24 51.87319 4.03094 8961 ft 293 kts 57°
2026-05-05 11:24 51.88400 4.05865 8654 ft 288 kts 57°
2026-05-05 11:25 51.89455 4.08571 8350 ft 281 kts 57°
2026-05-05 11:25 51.90485 4.11219 8064 ft 275 kts 57°
2026-05-05 11:25 51.91564 4.13739 7776 ft 271 kts 46°
2026-05-05 11:25 51.92956 4.15786 7522 ft 270 kts 40°
2026-05-05 11:26 51.94394 4.17724 7238 ft 269 kts 39°
2026-05-05 11:26 51.95832 4.19647 6965 ft 267 kts 39°
2026-05-05 11:26 51.97246 4.21523 6722 ft 262 kts 38°
2026-05-05 11:26 51.98665 4.23317 6434 ft 256 kts 37°
2026-05-05 11:27 52.00063 4.25053 6140 ft 250 kts 37°
2026-05-05 11:27 52.01424 4.26738 5863 ft 243 kts 37°
2026-05-05 11:27 52.02747 4.28378 5619 ft 236 kts 37°
2026-05-05 11:27 52.04027 4.29967 5398 ft 228 kts 37°
2026-05-05 11:28 52.05273 4.31520 5170 ft 224 kts 37°
2026-05-05 11:28 52.06430 4.32966 4981 ft 222 kts 37°
2026-05-05 11:28 52.07648 4.34493 4749 ft 220 kts 37°
2026-05-05 11:28 52.08854 4.36011 4534 ft 218 kts 37°
2026-05-05 11:29 52.10057 4.37520 4313 ft 217 kts 37°
2026-05-05 11:29 52.11253 4.39014 4163 ft 215 kts 37°
2026-05-05 11:29 52.12449 4.40503 4084 ft 218 kts 37°
2026-05-05 11:29 52.13653 4.42000 3980 ft 217 kts 37°
2026-05-05 11:30 52.14848 4.43490 3875 ft 215 kts 37°
2026-05-05 11:30 52.16029 4.44966 3777 ft 213 kts 37°
2026-05-05 11:30 52.17195 4.46421 3604 ft 216 kts 37°
2026-05-05 11:30 52.18393 4.47911 3418 ft 216 kts 37°
2026-05-05 11:31 52.19477 4.49561 3187 ft 211 kts 51°
2026-05-05 11:31 52.20345 4.51428 2983 ft 202 kts 54°
2026-05-05 11:31 52.21109 4.53294 2756 ft 194 kts 57°
2026-05-05 11:31 52.21811 4.55117 2562 ft 184 kts 58°
2026-05-05 11:32 52.22463 4.56831 2434 ft 173 kts 58°
2026-05-05 11:32 52.23092 4.58449 2208 ft 165 kts 59°
2026-05-05 11:32 52.23670 4.60000 1990 ft 155 kts 57°
2026-05-05 11:32 52.24236 4.61482 1786 ft 155 kts 58°
2026-05-05 11:33 52.24807 4.62986 1499 ft 158 kts 57°
2026-05-05 11:33 52.25371 4.64512 1339 ft 156 kts 57°
2026-05-05 11:33 52.25931 4.65944 1191 ft 138 kts 55°
2026-05-05 11:33 52.26438 4.67263 955 ft 139 kts 56°
2026-05-05 11:34 52.26949 4.68604 759 ft 138 kts 56°
2026-05-05 11:34 52.27467 4.69946 566 ft 143 kts 57°
2026-05-05 11:34 52.27995 4.71325 386 ft 144 kts 56°
2026-05-05 11:34 52.28523 4.72697 191 ft 141 kts 57°
2026-05-05 11:35 52.29032 4.74043 4 ft 136 kts 56°
2026-05-05 11:35 52.29474 4.75190 -4 ft 98 kts 58°
2026-05-05 11:35 52.29713 4.75745 -3 ft 32 kts 34°
2026-05-05 11:35 52.29855 4.75867 -2 ft 11 kts 27°
2026-05-05 11:36 52.29915 4.75918 -2 ft 10 kts 27°
2026-05-05 11:36 52.29972 4.75967 -2 ft 9 kts 31°
2026-05-05 11:36 52.30016 4.76051 -2 ft 11 kts 58°
2026-05-05 11:36 52.30068 4.76189 -2 ft 18 kts 58°
2026-05-05 11:37 52.30141 4.76388 -2 ft 22 kts 57°
2026-05-05 11:37 52.30224 4.76592 -2 ft 21 kts 57°
2026-05-05 11:37 52.30298 4.76727 -2 ft 15 kts 12°
2026-05-05 11:37 52.30352 4.76631 -2 ft 13 kts 278°
2026-05-05 11:38 52.30412 4.76530 -2 ft 13 kts 328°
2026-05-05 11:38 52.30460 4.76482 -2 ft 5 kts 338°
2026-05-05 11:38 52.30491 4.76511 -2 ft 6 kts 54°
2026-05-05 11:38 52.30504 4.76545 -2 ft 1 kts 58°
2026-05-05 11:39 52.30506 4.76551 -2 ft 0 kts 59°